DW1089 L\\\' Isle Jourdain FR current weather conditions

sailwx.info

Wind from 055 at 3 knots gusting 11

Air temperature 20.6° C
Dewpoint 16.2° C

Last reported at 2019-Sep-20 19:02 UTC.
Time now 2019-Sep-20 20:15 UTC

Location: N 43°39' E 001°04'.
View on Google Maps.

See reports from other nearby stations

  
Tides and Currents Weather Stations Pressure Air Temp Water Temp Dewpoint Dewpoint Depression Visibility Wind Speed Wind Dir Waves Ship Positions
date/time (UTC)wind fromknots sea level pressurealtimeterstation pressurevisibilityair tempwater tempwave heightnotes
2019-Sep-20 19:02 055 3 gusting 11 20.6
2019-Sep-20 18:57 130 3 gusting 11 20.6
2019-Sep-20 18:52 043 3 gusting 12 20.6
2019-Sep-20 18:47 043 4 gusting 12 20.6
2019-Sep-20 18:42 069 4 gusting 12 20.6
2019-Sep-20 18:37 039 3 gusting 8 20.6
2019-Sep-20 18:32 114 2 gusting 13 21.1
2019-Sep-20 18:27 092 3 gusting 13 21.1
2019-Sep-20 18:22 087 3 gusting 10 21.1
2019-Sep-20 18:17 096 3 gusting 11 21.1
2019-Sep-20 18:12 063 3 gusting 11 21.7
2019-Sep-20 18:07 117 3 gusting 11 21.7
2019-Sep-20 18:02 053 3 gusting 8 21.7
2019-Sep-20 17:57 114 3 gusting 8 21.7
2019-Sep-20 17:52 165 1 gusting 15 22.2
2019-Sep-20 17:47 096 1 gusting 15 22.2
2019-Sep-20 17:42 095 3 gusting 15 22.2
2019-Sep-20 17:37 093 4 gusting 9 22.8
2019-Sep-20 17:32 086 2 gusting 9 22.8
2019-Sep-20 17:27 113 1 gusting 9 23.3
2019-Sep-20 17:22 132 2 gusting 15 23.3
2019-Sep-20 17:17 108 4 gusting 15 23.3
2019-Sep-20 17:12 105 4 gusting 15 23.3
2019-Sep-20 17:07 154 4 gusting 13 23.9
2019-Sep-20 17:02 124 5 gusting 13 23.9
2019-Sep-20 16:57 105 5 gusting 12 23.9
2019-Sep-20 16:52 095 3 gusting 11 24.4
2019-Sep-20 16:47 112 3 gusting 11 24.4
2019-Sep-20 16:42 073 4 gusting 9 24.4
2019-Sep-20 16:37 063 3 gusting 10 25.0
2019-Sep-20 16:32 070 3 gusting 10 25.0
2019-Sep-20 16:27 063 3 gusting 10 25.6
2019-Sep-20 16:22 067 2 gusting 9 25.6
2019-Sep-20 16:17 083 2 gusting 8 25.6
2019-Sep-20 16:12 045 3 gusting 15 25.6
2019-Sep-20 16:07 055 3 gusting 15 26.1
2019-Sep-20 16:02 052 3 gusting 15 26.1
2019-Sep-20 15:57 161 3 gusting 11 26.1
2019-Sep-20 15:52 090 3 gusting 11 26.7
2019-Sep-20 15:47 088 3 gusting 10 26.7
2019-Sep-20 15:42 107 3 gusting 10 26.7
2019-Sep-20 15:37 109 2 gusting 9 26.7
2019-Sep-20 15:32 130 2 gusting 9 27.2
2019-Sep-20 15:27 113 2 gusting 8 27.2
2019-Sep-20 15:22 049 2 gusting 7 27.8
2019-Sep-20 15:17 092 2 gusting 7 27.8
2019-Sep-20 15:12 059 3 gusting 7 27.8
2019-Sep-20 15:07 051 3 gusting 7 27.8
2019-Sep-20 15:02 049 2 gusting 9 28.3
2019-Sep-20 14:57 136 2 gusting 9 28.3
2019-Sep-20 14:52 080 3 gusting 9 28.3
2019-Sep-20 14:47 048 3 gusting 9 28.3
2019-Sep-20 14:42 051 2 gusting 8 28.3
2019-Sep-20 14:37 116 2 gusting 9 28.3
2019-Sep-20 14:32 079 3 gusting 11 28.3
2019-Sep-20 14:27 101 4 gusting 11 28.3
2019-Sep-20 14:22 174 3 gusting 11 28.3
2019-Sep-20 14:17 113 3 gusting 9 28.3
2019-Sep-20 14:12 089 2 gusting 11 28.3
2019-Sep-20 14:07 111 2 gusting 13 28.9
2019-Sep-20 14:02 153 3 gusting 13 28.3
2019-Sep-20 13:57 098 3 gusting 13 28.3
2019-Sep-20 13:52 117 3 gusting 9 28.3
2019-Sep-20 13:47 057 3 gusting 10 28.3
2019-Sep-20 13:42 083 3 gusting 13 28.3
2019-Sep-20 13:37 121 4 gusting 13 28.3
2019-Sep-20 13:32 099 4 gusting 13 28.3
2019-Sep-20 13:27 107 3 gusting 10 28.3
2019-Sep-20 13:22 098 3 gusting 10 28.3
2019-Sep-20 13:17 055 2 gusting 9 28.3
2019-Sep-20 13:12 085 2 gusting 13 28.3
2019-Sep-20 13:07 041 4 gusting 13 27.8
2019-Sep-20 13:02 020 4 gusting 11 27.8
2019-Sep-20 12:57 148 4 gusting 11 27.8
2019-Sep-20 12:52 081 4 gusting 11 27.8
2019-Sep-20 12:47 117 4 gusting 11 27.2
2019-Sep-20 12:42 057 5 gusting 13 27.2
2019-Sep-20 12:37 121 4 gusting 13 27.2
2019-Sep-20 12:32 039 3 gusting 13 27.2
2019-Sep-20 12:27 161 3 gusting 12 27.2
2019-Sep-20 12:22 101 4 gusting 12 26.7
2019-Sep-20 12:17 133 4 gusting 12 26.7
2019-Sep-20 12:12 140 4 gusting 12 26.7
2019-Sep-20 12:07 096 5 gusting 12 26.7
2019-Sep-20 12:02 118 5 gusting 12 26.1
2019-Sep-20 11:57 142 3 gusting 11 26.7
2019-Sep-20 11:52 065 3 gusting 11 26.7
2019-Sep-20 11:47 190 4 gusting 10 26.1
2019-Sep-20 11:42 063 5 gusting 12 26.1
2019-Sep-20 11:37 082 5 gusting 12 26.1
2019-Sep-20 11:32 036 4 gusting 15 26.1
2019-Sep-20 11:27 086 4 gusting 15 26.1
2019-Sep-20 11:22 098 4 gusting 15 26.1
2019-Sep-20 11:17 113 3 gusting 9 26.7
2019-Sep-20 11:12 026 2 gusting 9 26.7
2019-Sep-20 11:07 073 2 gusting 10 26.1
2019-Sep-20 11:02 071 2 gusting 11 26.1
2019-Sep-20 10:57 118 3 gusting 11 25.6
2019-Sep-20 10:52 096 4 gusting 13 25.0
2019-Sep-20 10:47 123 5 gusting 13 25.0
2019-Sep-20 10:42 112 4 gusting 13 25.6
2019-Sep-20 10:37 127 3 gusting 8 26.1
2019-Sep-20 10:32 067 3 gusting 11 26.1
2019-Sep-20 10:27 088 2 gusting 11 25.6
2019-Sep-20 10:22 108 2 gusting 11 25.6
2019-Sep-20 10:17 103 3 gusting 12 25.6
2019-Sep-20 10:12 167 3 gusting 12 25.0
2019-Sep-20 10:07 114 3 gusting 12 25.0
2019-Sep-20 10:02 109 3 gusting 12 24.4
2019-Sep-20 09:57 112 5 gusting 13 24.4
2019-Sep-20 09:52 185 5 gusting 13 23.9
2019-Sep-20 09:47 23.9
2019-Sep-20 09:42 132 3 gusting 11 23.9
2019-Sep-20 09:37 135 3 gusting 13 23.9
2019-Sep-20 09:32 102 3 gusting 13 23.9
2019-Sep-20 09:27 128 2 gusting 13 23.3
2019-Sep-20 09:22 162 2 gusting 11 23.3
2019-Sep-20 09:17 051 3 gusting 11 22.8
2019-Sep-20 09:12 046 4 gusting 11 22.8
2019-Sep-20 09:07 130 3 gusting 13 22.8
2019-Sep-20 09:02 094 3 gusting 13 22.2
2019-Sep-20 08:57 107 3 gusting 13 22.2
2019-Sep-20 08:52 082 3 gusting 11 22.2
2019-Sep-20 08:47 211 2 gusting 11 21.7
2019-Sep-20 08:42 113 2 gusting 11 21.7
2019-Sep-20 08:37 123 2 gusting 11 21.7
2019-Sep-20 08:32 110 1 gusting 15 21.1
2019-Sep-20 08:27 175 2 gusting 15 21.1
2019-Sep-20 08:22 124 3 gusting 15 21.1
2019-Sep-20 08:17 132 2 gusting 13 20.6
2019-Sep-20 08:12 082 2 gusting 13 20.6
2019-Sep-20 08:07 116 2 gusting 13 20.6
2019-Sep-20 08:02 109 3 gusting 13 20.0
2019-Sep-20 07:57 134 3 gusting 13 20.0
2019-Sep-20 07:52 064 3 gusting 13 20.0
2019-Sep-20 07:47 058 3 gusting 15 19.4
2019-Sep-20 07:42 094 3 gusting 15 19.4
2019-Sep-20 07:37 110 3 gusting 11 19.4
2019-Sep-20 07:32 087 3 gusting 11 19.4
2019-Sep-20 07:27 096 2 gusting 13 18.9
2019-Sep-20 07:22 123 3 gusting 13 18.9
2019-Sep-20 07:17 034 3 gusting 13 18.3
2019-Sep-20 07:12 094 3 gusting 12 18.3
2019-Sep-20 07:07 101 2 gusting 13 18.3
2019-Sep-20 07:02 027 2 gusting 13 17.8
2019-Sep-20 06:57 034 2 gusting 13 17.8
2019-Sep-20 06:52 078 1 gusting 7 17.8
2019-Sep-20 06:47 118 2 gusting 7 17.8
2019-Sep-20 06:42 071 1 gusting 7 17.8
2019-Sep-20 06:37 055 0 gusting 6 17.8
2019-Sep-20 06:32 071 0 gusting 5 17.2
2019-Sep-20 06:27 124 1 gusting 5 17.2
2019-Sep-20 06:22 063 0 gusting 6 17.2
2019-Sep-20 06:17 053 0 gusting 6 17.2
2019-Sep-20 06:12 080 0 gusting 10 17.2
2019-Sep-20 06:07 040 0 gusting 10 16.7
2019-Sep-20 06:02 105 0 gusting 10 16.7
2019-Sep-20 05:57 127 0 gusting 4 16.7
2019-Sep-20 05:52 090 0 gusting 4 17.2
2019-Sep-20 05:47 036 0 gusting 4 17.2
2019-Sep-20 05:42 088 17.2
2019-Sep-20 05:37 085 17.2
2019-Sep-20 05:32 085 0 gusting 6 17.2
2019-Sep-20 05:27 086 0 gusting 6 17.2
2019-Sep-20 05:22 043 0 gusting 6 17.2
2019-Sep-20 05:17 116 0 gusting 5 17.2
2019-Sep-20 05:12 084 0 gusting 6 17.2
2019-Sep-20 05:07 058 0 gusting 6 17.2
2019-Sep-20 05:02 083 0 gusting 6 17.2
2019-Sep-20 04:57 120 0 gusting 6 17.2
2019-Sep-20 04:52 113 0 gusting 6 17.2
2019-Sep-20 04:47 077 0 gusting 6 17.2
2019-Sep-20 04:42 081 0 gusting 6 17.2
2019-Sep-20 04:37 105 0 gusting 6 17.2
2019-Sep-20 04:32 105 0 gusting 4 17.2
2019-Sep-20 04:27 126 0 gusting 4 17.2
2019-Sep-20 04:22 082 17.2
2019-Sep-20 04:17 092 17.2
2019-Sep-20 04:12 097 17.2
2019-Sep-20 04:07 084 17.2
2019-Sep-20 04:02 071 17.2
2019-Sep-20 03:57 089 17.2
2019-Sep-20 03:52 103 17.2
2019-Sep-20 03:47 068 17.2
2019-Sep-20 03:42 085 17.2
2019-Sep-20 03:37 088 17.8
2019-Sep-20 03:32 111 0 gusting 4 17.8
2019-Sep-20 03:27 108 0 gusting 4 17.8
2019-Sep-20 03:22 117 0 gusting 3 17.8
2019-Sep-20 03:17 103 0 gusting 4 17.8
2019-Sep-20 03:12 134 17.8
2019-Sep-20 03:07 055 0 gusting 5 17.8
2019-Sep-20 03:02 126 17.8
2019-Sep-20 02:57 107 17.8
2019-Sep-20 02:52 113 0 gusting 6 17.8
2019-Sep-20 02:47 096 0 gusting 6 17.8
2019-Sep-20 02:42 107 0 gusting 6 17.8
2019-Sep-20 02:37 084 0 gusting 6 17.8
2019-Sep-20 02:32 113 0 gusting 6 17.8
2019-Sep-20 02:27 113 0 gusting 6 17.8
2019-Sep-20 02:22 096 0 gusting 4 17.8
2019-Sep-20 02:17 112 0 gusting 4 17.8
2019-Sep-20 02:12 090 0 gusting 6 17.8
2019-Sep-20 02:07 101 0 gusting 6 17.8
2019-Sep-20 02:02 094 0 gusting 6 17.8
2019-Sep-20 01:57 102 0 gusting 4 17.8
2019-Sep-20 01:52 128 0 gusting 5 17.8
2019-Sep-20 01:47 111 0 gusting 5 17.8
2019-Sep-20 01:42 084 0 gusting 5 17.8
2019-Sep-20 01:37 081 17.8
2019-Sep-20 01:32 084 17.8
2019-Sep-20 01:27 065 17.8
2019-Sep-20 01:22 120 0 gusting 4 17.8
2019-Sep-20 01:17 078 17.8
2019-Sep-20 01:12 099 17.8
2019-Sep-20 01:07 122 17.8
2019-Sep-20 01:02 114 17.8
2019-Sep-20 00:57 111 17.8
2019-Sep-20 00:52 119 17.8
2019-Sep-20 00:47 159 0 gusting 4 17.8
2019-Sep-20 00:42 055 0 gusting 3 17.2
2019-Sep-20 00:37 070 0 gusting 2 17.2
2019-Sep-20 00:32 086 17.2
2019-Sep-20 00:27 086 17.2
2019-Sep-20 00:22 088 16.7
2019-Sep-20 00:17 091 16.7
2019-Sep-20 00:12 108 16.7
2019-Sep-20 00:07 154 0 gusting 3 16.7
2019-Sep-20 00:02 175 1 gusting 3 17.2
2019-Sep-19 23:57 178 0 gusting 1 17.2
2019-Sep-19 23:52 190 17.8
2019-Sep-19 23:47 190 17.8
2019-Sep-19 23:42 191 18.3
2019-Sep-19 23:37 192 18.9
2019-Sep-19 23:32 197 18.9
2019-Sep-19 23:27 18.9
2019-Sep-19 23:22 18.9
2019-Sep-19 23:17 198 18.9
2019-Sep-19 23:12 200 19.4
2019-Sep-19 23:07 198 19.4
2019-Sep-19 23:02 198 19.4
2019-Sep-19 22:57 198 19.4
2019-Sep-19 22:52 199 19.4
2019-Sep-19 22:47 200 19.4
2019-Sep-19 22:42 198 19.4
2019-Sep-19 22:37 198 19.4
2019-Sep-19 22:32 198 19.4
2019-Sep-19 22:27 200 19.4
2019-Sep-19 22:22 198 19.4
2019-Sep-19 22:17 199 19.4
2019-Sep-19 22:12 197 20.0
2019-Sep-19 22:07 198 20.0
2019-Sep-19 22:02 200 20.0
2019-Sep-19 21:57 20.0
2019-Sep-19 21:52 198 20.0
2019-Sep-19 21:47 198 20.6
2019-Sep-19 21:42 198 20.6
2019-Sep-19 21:37 198 21.1
2019-Sep-19 21:32 21.1
2019-Sep-19 21:27 199 21.7
2019-Sep-19 21:22 21.7
2019-Sep-19 21:17 198 4 gusting 6 21.1
2019-Sep-19 21:12 198 5 gusting 6 21.1
2019-Sep-19 21:07 198 5 gusting 6 21.1
2019-Sep-19 21:02 191 4 gusting 6 21.1
2019-Sep-19 20:57 188 2 gusting 3 21.7
2019-Sep-19 20:52 22.2
2019-Sep-19 20:47 227 22.2
2019-Sep-19 20:42 293 22.2
2019-Sep-19 20:37 294 21.7
2019-Sep-19 20:32 294 21.7
2019-Sep-19 20:27 293 21.7
2019-Sep-19 20:22 22.2
2019-Sep-19 20:17 294 22.2
2019-Sep-19 20:12 293 22.2
2019-Sep-19 20:07 293 22.2
2019-Sep-19 20:02 22.2
2019-Sep-19 19:57 293 22.2
2019-Sep-19 19:52 293 22.2
2019-Sep-19 19:47 293 22.2
2019-Sep-19 19:42 294 22.8
2019-Sep-19 19:37 293 22.8
2019-Sep-19 19:32 294 22.8
2019-Sep-19 19:27 294 22.8
2019-Sep-19 19:22 22.8
2019-Sep-19 19:17 294 23.3
2019-Sep-19 19:12 294 23.3
2019-Sep-19 19:07 293 23.3
2019-Sep-19 19:02 294 23.3
2019-Sep-19 18:57 294 23.9
2019-Sep-19 18:52 23.9
2019-Sep-19 18:47 23.9
2019-Sep-19 18:42 294 23.9
2019-Sep-19 18:37 294 23.9
2019-Sep-19 18:32 23.9
2019-Sep-19 18:27 294 23.9
2019-Sep-19 18:22 294 24.4
2019-Sep-19 18:17 294 24.4
2019-Sep-19 18:12 292 24.4
2019-Sep-19 18:07 293 24.4
2019-Sep-19 18:02 25.0
2019-Sep-19 17:57 292 25.0
2019-Sep-19 17:52 25.0
2019-Sep-19 17:47 292 25.6
2019-Sep-19 17:42 292 25.6
2019-Sep-19 17:37 293 25.6
2019-Sep-19 17:32 292 25.6
2019-Sep-19 17:27 292 25.6
2019-Sep-19 17:22 292 0 gusting 3 26.1
2019-Sep-19 17:17 292 0 gusting 3 26.1
2019-Sep-19 17:12 288 26.1
2019-Sep-19 17:07 26.1
2019-Sep-19 17:02 287 26.1
2019-Sep-19 16:57 287 26.1
2019-Sep-19 16:52 26.1
2019-Sep-19 16:47 288 26.1
2019-Sep-19 16:42 287 0 gusting 5 26.1
2019-Sep-19 16:37 26.1
2019-Sep-19 16:32 282 0 gusting 6 26.1
2019-Sep-19 16:27 282 0 gusting 6 26.7
2019-Sep-19 16:22 281 1 gusting 6 26.7
2019-Sep-19 16:17 328 2 gusting 5 26.7
2019-Sep-19 16:12 316 1 gusting 6 26.7
2019-Sep-19 16:07 343 2 gusting 6 26.7
2019-Sep-19 16:02 26.7
2019-Sep-19 15:57 294 0 gusting 6 26.7
2019-Sep-19 15:52 27.2
2019-Sep-19 15:47 27.2
2019-Sep-19 15:42 009 2 gusting 6 27.2
2019-Sep-19 15:37 27.8
2019-Sep-19 15:32 034 1 gusting 6 27.8
2019-Sep-19 15:27 018 2 gusting 6 27.8
2019-Sep-19 15:22 005 3 gusting 6 27.8
2019-Sep-19 15:17 014 2 gusting 6 27.8
2019-Sep-19 15:12 344 1 gusting 6 27.8
2019-Sep-19 15:07 337 2 gusting 6 27.8
2019-Sep-19 15:02 355 2 gusting 6 27.8
2019-Sep-19 14:57 030 0 gusting 7 27.8
2019-Sep-19 14:52 310 1 gusting 7 27.2
2019-Sep-19 14:47 27.2
2019-Sep-19 14:42 288 1 gusting 5 27.8
2019-Sep-19 14:37 257 1 gusting 5 27.8
2019-Sep-19 14:32 28.3
2019-Sep-19 14:27 015 1 gusting 6 28.3
2019-Sep-19 14:22 27.8
2019-Sep-19 14:17 315 2 gusting 6 27.8
2019-Sep-19 14:12 27.8
2019-Sep-19 14:07 27.2
2019-Sep-19 14:02 331 0 gusting 7 26.7
2019-Sep-19 13:57 297 1 gusting 7 26.7
2019-Sep-19 13:52 264 1 gusting 6 26.7
2019-Sep-19 13:47 26.7
2019-Sep-19 13:42 26.7
2019-Sep-19 13:37 295 1 gusting 6 26.7
2019-Sep-19 13:32 26.7
2019-Sep-19 13:27 288 1 gusting 6 26.7
2019-Sep-19 13:22 282 1 gusting 6 26.7
2019-Sep-19 13:17 286 1 gusting 6 27.2
2019-Sep-19 13:12 005 1 gusting 6 27.2
2019-Sep-19 13:07 333 1 gusting 5 27.2
2019-Sep-19 13:02 044 0 gusting 5 26.7
2019-Sep-19 12:57 231 0 gusting 5 26.1
2019-Sep-19 12:52 286 0 gusting 5 25.6
2019-Sep-19 12:47 283 1 gusting 8 25.0
2019-Sep-19 12:42 282 3 gusting 8 25.0
2019-Sep-19 12:37 283 3 gusting 8 25.0
2019-Sep-19 12:32 25.0
2019-Sep-19 12:27 298 1 gusting 6 25.6
2019-Sep-19 12:22 217 1 gusting 6 25.6
2019-Sep-19 12:17 271 2 gusting 6 25.6
2019-Sep-19 12:12 298 1 gusting 6 26.1
2019-Sep-19 12:07 098 0 gusting 6 26.1
2019-Sep-19 12:02 032 2 gusting 6 25.6
2019-Sep-19 11:57 25.6
2019-Sep-19 11:52 009 1 gusting 5 25.0
2019-Sep-19 11:47 313 2 gusting 5 24.4
2019-Sep-19 11:42 317 2 gusting 5 24.4
2019-Sep-19 11:37 313 2 gusting 6 23.9
2019-Sep-19 11:32 289 1 gusting 6 23.9
2019-Sep-19 11:27 307 0 gusting 6 23.9
2019-Sep-19 11:22 311 1 gusting 6 23.9
2019-Sep-19 11:17 288 2 gusting 6 23.3
2019-Sep-19 11:12 292 1 gusting 5 23.3
2019-Sep-19 11:07 216 1 gusting 8 22.8
2019-Sep-19 11:02 203 2 gusting 8 22.8
2019-Sep-19 10:57 293 2 gusting 8 22.8
2019-Sep-19 10:52 22.8
2019-Sep-19 10:47 337 2 gusting 7 22.2
2019-Sep-19 10:42 288 2 gusting 7 22.8
2019-Sep-19 10:37 124 1 gusting 6 22.2
2019-Sep-19 10:32 287 2 gusting 6 22.2
2019-Sep-19 10:27 217 2 gusting 7 21.7
2019-Sep-19 10:22 339 2 gusting 7 21.7
2019-Sep-19 10:17 278 1 gusting 7 21.7
2019-Sep-19 10:12 267 2 gusting 6 21.1
2019-Sep-19 10:07 290 2 gusting 5 21.1
2019-Sep-19 10:02 205 1 gusting 5 21.1
2019-Sep-19 09:57 292 1 gusting 5 21.1
2019-Sep-19 09:52 259 1 gusting 6 21.1
2019-Sep-19 09:47 21.1
2019-Sep-19 09:42 259 1 gusting 6 21.1
2019-Sep-19 09:37 20.6
2019-Sep-19 09:32 207 1 gusting 6 20.0
2019-Sep-19 09:27 294 1 gusting 6 20.0
2019-Sep-19 09:22 19.4
2019-Sep-19 09:17 278 3 gusting 7 19.4
2019-Sep-19 09:12 255 2 gusting 6 19.4
2019-Sep-19 09:07 327 1 gusting 6 18.9
2019-Sep-19 09:02 309 2 gusting 6 18.9
2019-Sep-19 08:57 286 2 gusting 6 18.9
2019-Sep-19 08:52 275 2 gusting 6 18.3
2019-Sep-19 08:47 302 2 gusting 6 18.3
2019-Sep-19 08:42 279 3 gusting 6 18.3
2019-Sep-19 08:37 284 3 gusting 6 18.3
2019-Sep-19 08:32 290 2 gusting 6 17.8
2019-Sep-19 08:27 284 2 gusting 6 17.8
2019-Sep-19 08:22 286 1 gusting 6 17.8
2019-Sep-19 08:17 277 1 gusting 6 17.8
2019-Sep-19 08:12 288 1 gusting 6 17.8
2019-Sep-19 08:07 289 1 gusting 6 17.2
2019-Sep-19 08:02 17.2
2019-Sep-19 07:57 284 1 gusting 6 17.2
2019-Sep-19 07:52 286 1 gusting 4 17.2
2019-Sep-19 07:47 17.2
2019-Sep-19 07:42 269 0 gusting 6 17.2
2019-Sep-19 07:37 268 1 gusting 6 17.2
2019-Sep-19 07:32 277 2 gusting 6 17.2
2019-Sep-19 07:27 280 3 gusting 6 17.2
2019-Sep-19 07:22 290 1 gusting 6 17.2
2019-Sep-19 07:17 265 0 gusting 5 17.2
2019-Sep-19 07:12 213 2 gusting 6 16.7
2019-Sep-19 07:07 271 1 gusting 6 16.7
2019-Sep-19 07:02 16.7
2019-Sep-19 06:57 283 2 gusting 5 16.7
2019-Sep-19 06:52 284 2 gusting 5 16.7
2019-Sep-19 06:47 16.7
2019-Sep-19 06:42 281 1 gusting 5 16.7
2019-Sep-19 06:37 282 1 gusting 5 16.7
2019-Sep-19 06:32 259 0 gusting 4 16.7
2019-Sep-19 06:27 279 0 gusting 4 16.7
2019-Sep-19 06:22 277 0 gusting 4 16.7
2019-Sep-19 06:17 277 0 gusting 5 16.7
2019-Sep-19 06:12 292 0 gusting 5 16.7
2019-Sep-19 06:07 293 0 gusting 3 16.7
2019-Sep-19 06:02 280 0 gusting 4 16.7
2019-Sep-19 05:57 16.1
2019-Sep-19 05:52 276 16.1
2019-Sep-19 05:47 221 16.1
2019-Sep-19 05:42 16.1
2019-Sep-19 05:37 267 0 gusting 4 16.1
2019-Sep-19 05:32 16.1
2019-Sep-19 05:27 169 0 gusting 4 16.1
2019-Sep-19 05:22 16.1
2019-Sep-19 05:17 247 0 gusting 5 16.1
2019-Sep-19 05:12 248 0 gusting 5 16.1
2019-Sep-19 05:07 257 0 gusting 5 16.1
2019-Sep-19 05:02 16.1
2019-Sep-19 04:57 251 0 gusting 4 16.1
2019-Sep-19 04:52 269 15.6
2019-Sep-19 04:47 15.6
2019-Sep-19 04:42 277 15.6
2019-Sep-19 04:37 277 15.6
2019-Sep-19 04:32 277 15.6
2019-Sep-19 04:27 277 16.1
2019-Sep-19 04:22 16.1
2019-Sep-19 04:17 279 1 gusting 5 16.1
2019-Sep-19 04:12 16.1
2019-Sep-19 04:07 262 1 gusting 5 16.1
2019-Sep-19 04:02 279 2 gusting 6 16.1
2019-Sep-19 03:57 270 2 gusting 6 16.1
2019-Sep-19 03:52 268 3 gusting 5 16.1
2019-Sep-19 03:47 281 3 gusting 6 16.1
2019-Sep-19 03:42 286 3 gusting 7 16.1
2019-Sep-19 03:37 281 3 gusting 7 16.1
2019-Sep-19 03:32 263 4 gusting 7 16.1
2019-Sep-19 03:27 288 4 gusting 7 16.1
2019-Sep-19 03:22 282 4 gusting 7 16.7
2019-Sep-19 03:17 287 4 gusting 7 16.7
2019-Sep-19 03:12 16.7
2019-Sep-19 03:07 277 3 gusting 7 16.7
2019-Sep-19 03:02 16.7
2019-Sep-19 02:57 277 4 gusting 7 16.7
2019-Sep-19 02:52 268 4 gusting 6 16.7
2019-Sep-19 02:47 16.7
2019-Sep-19 02:42 280 5 gusting 8 16.7
2019-Sep-19 02:37 272 4 gusting 8 17.2
2019-Sep-19 02:32 17.2
2019-Sep-19 02:27 277 4 gusting 9 17.2
2019-Sep-19 02:22 17.2
2019-Sep-19 02:17 265 5 gusting 9 17.2
2019-Sep-19 02:12 288 5 gusting 8 17.8
2019-Sep-19 02:07 17.8
2019-Sep-19 02:02 17.8
2019-Sep-19 01:57 286 3 gusting 7 17.8
2019-Sep-19 01:52 279 4 gusting 7 17.8
2019-Sep-19 01:47 278 5 gusting 7 17.8
2019-Sep-19 01:42 282 4 gusting 6 18.3
2019-Sep-19 01:37 279 3 gusting 6 18.3
2019-Sep-19 01:32 279 3 gusting 6 18.3
2019-Sep-19 01:27 18.3
2019-Sep-19 01:22 18.3
2019-Sep-19 01:17 18.9
2019-Sep-19 01:12 288 2 gusting 6 18.9
2019-Sep-19 01:07 279 2 gusting 5 18.9
2019-Sep-19 01:02 281 1 gusting 5 18.9
2019-Sep-19 00:57 267 18.9
2019-Sep-19 00:52 214 19.4
2019-Sep-19 00:47 214 0 gusting 6 19.4
2019-Sep-19 00:42 221 0 gusting 6 19.4
2019-Sep-19 00:37 192 0 gusting 6 19.4
2019-Sep-19 00:32 202 0 gusting 5 19.4
2019-Sep-19 00:27 285 1 gusting 7 19.4
2019-Sep-19 00:22 190 2 gusting 7 19.4
2019-Sep-19 00:17 240 3 gusting 7 19.4
2019-Sep-19 00:12 194 3 gusting 9 19.4
2019-Sep-19 00:07 209 4 gusting 10 19.4
2019-Sep-19 00:02 198 6 gusting 10 19.4
2019-Sep-18 23:57 186 5 gusting 10 19.4
2019-Sep-18 23:52 181 5 gusting 7 19.4
2019-Sep-18 23:47 175 3 gusting 6 19.4
2019-Sep-18 23:42 194 0 gusting 2 19.4
2019-Sep-18 23:37 19.4
2019-Sep-18 23:32 19.4
2019-Sep-18 23:27 19.4
2019-Sep-18 23:22 202 19.4
2019-Sep-18 23:17 201 19.4
2019-Sep-18 23:12 202 0 gusting 6 19.4
2019-Sep-18 23:07 205 1 gusting 6 20.0
2019-Sep-18 23:02 203 1 gusting 6 20.0
2019-Sep-18 22:57 207 20.0
2019-Sep-18 22:52 20.0
2019-Sep-18 22:47 217 20.0
2019-Sep-18 22:42 259 20.0
2019-Sep-18 22:37 271 0 gusting 6 20.6
2019-Sep-18 22:32 294 1 gusting 10 20.6
2019-Sep-18 22:27 247 2 gusting 10 20.6
2019-Sep-18 22:22 257 2 gusting 10 20.6
2019-Sep-18 22:17 20.6
2019-Sep-18 22:12 267 1 gusting 6 20.6
2019-Sep-18 22:07 275 2 gusting 6 21.1
2019-Sep-18 22:02 253 3 gusting 6 21.1
2019-Sep-18 21:57 268 3 gusting 6 21.1
2019-Sep-18 21:52 228 2 gusting 6 21.1
2019-Sep-18 21:47 264 2 gusting 6 21.1
2019-Sep-18 21:42 266 2 gusting 6 21.7
2019-Sep-18 21:37 293 1 gusting 6 21.7
2019-Sep-18 21:32 21.7
2019-Sep-18 21:27 274 1 gusting 6 21.7
2019-Sep-18 21:22 254 2 gusting 6 21.7
2019-Sep-18 21:17 272 1 gusting 5 21.7
2019-Sep-18 21:12 259 1 gusting 5 21.7
2019-Sep-18 21:07 244 1 gusting 5 22.2
2019-Sep-18 21:02 22.2
2019-Sep-18 20:57 245 0 gusting 4 22.2
2019-Sep-18 20:52 196 1 gusting 4 22.2
2019-Sep-18 20:47 209 2 gusting 4 22.2
2019-Sep-18 20:42 207 2 gusting 5 22.2
2019-Sep-18 20:37 210 3 gusting 6 22.2
2019-Sep-18 20:32 207 3 gusting 6 22.2
2019-Sep-18 20:27 192 1 gusting 6 22.8
2019-Sep-18 20:22 201 22.8
2019-Sep-18 20:17 246 22.8
2019-Sep-18 20:12 246 23.3
2019-Sep-18 20:07 247 23.3
2019-Sep-18 20:02 246 23.3